Weather History for Pope Field Airport, NC

Change the Weather History Date:

Saturday, March 2, 2013

  Actual Average Record
Temperature  
Mean Temperature 40 °F -  
Max Temperature 48 °F 63 °F 80 °F (1992)
Min Temperature 31 °F 38 °F 20 °F (1980)
Degree Days  
Heating Degree Days 26    
Moisture  
Dew Point 28 °F    
Average Humidity 64    
Maximum Humidity 91    
Minimum Humidity 40    
Precipitation  
Precipitation 0.00 in - - ()
Sea Level Pressure  
Sea Level Pressure 29.89 in    
Wind  
Wind Speed 3 mph (WNW)    
Max Wind Speed 8 mph    
Max Gust Speed -    
Visibility 10 miles    
Events      
Averages and records for this station are not official NWS values.
T = Trace of Precipitation, MM = Missing Value Source: NWS Daily Summary

Daily Weather History Graph

Daily Weather History Graph

Search for Another Location

Airport:

Trip Planner

Search our weather history database for the weather conditions in past years. The results will help you decide how hot, cold, wet, or windy it might be!

Date:

Astronomy

Mar. 02, 2013 Rise Set
Actual Time 6:43 AM EST 6:12 PM EST
Civil Twilight 6:18 AM EST 6:38 PM EST
Nautical Twilight 5:49 AM EST 7:07 PM EST
Astronomical Twilight 5:19 AM EST 7:36 PM EST
Moon 11:36 PM EST (3/2) 9:23 AM EST (3/2)
Length of Visible Light 12h 19m
Length of Day
11h 28m
Waning Gibbous, 74% of the Moon is Illuminated
Mar 2
Waning Gibbous
Mar 4
Last Quarter
Mar 11
New
Mar 19
First Quarter
Mar 27
Full

Hourly Weather History & Observations

Time (EST) Temp. Windchill Dew Point Humidity Pressure Visibility Wind Dir Wind Speed Gust Speed Precip Events Conditions
12:58 AM 34.9 °F 32.0 °F 28.4 °F 77% 29.92 in 10.0 mi SW 3.5 mph - N/A   Clear
1:58 AM 31.8 °F - 29.5 °F 91% 29.94 in 10.0 mi West 1.2 mph - N/A   Clear
2:58 AM 31.1 °F - 28.0 °F 88% 29.93 in 10.0 mi West 2.3 mph - N/A   Overcast
3:58 AM 32.2 °F - 29.1 °F 88% 29.91 in 10.0 mi WSW 2.3 mph - N/A   Overcast
4:58 AM 33.6 °F - 29.7 °F 85% 29.91 in 10.0 mi North 1.2 mph - N/A   Overcast
5:58 AM 33.1 °F - 30.2 °F 89% 29.90 in 10.0 mi Calm Calm - N/A   Overcast
6:58 AM 35.1 °F - 30.6 °F 84% 29.90 in 10.0 mi WNW 1.2 mph - N/A   Overcast
7:58 AM 35.6 °F - 28.9 °F 77% 29.93 in 10.0 mi Calm Calm - N/A   Overcast
8:58 AM 37.9 °F - 29.1 °F 71% 29.92 in 10.0 mi Calm Calm - N/A   Partly Cloudy
9:58 AM 39.9 °F - 28.8 °F 64% 29.91 in 10.0 mi Calm Calm - N/A   Mostly Cloudy
10:58 AM 41.9 °F - 25.2 °F 52% 29.90 in 10.0 mi Calm Calm - N/A   Scattered Clouds
11:58 AM 43.9 °F - 24.8 °F 47% 29.88 in 10.0 mi East 2.3 mph - N/A   Scattered Clouds
12:58 PM 46.4 °F 45.2 °F 24.8 °F 43% 29.86 in 10.0 mi WNW 3.5 mph - N/A   Mostly Cloudy
1:58 PM 46.2 °F 44.1 °F 25.7 °F 45% 29.85 in 10.0 mi NE 4.6 mph - N/A   Mostly Cloudy
2:55 PM 48.2 °F - 24.8 °F 40% 29.82 in 10.0 mi Variable 1.2 mph - N/A   Overcast
3:55 PM 48.2 °F - 26.6 °F 43% 29.82 in 10.0 mi NNW 6.9 mph - N/A   Scattered Clouds
4:58 PM 47.7 °F - 26.2 °F 43% 29.83 in 10.0 mi NW 5.8 mph - N/A   Overcast
5:58 PM 46.9 °F - 27.5 °F 47% 29.82 in 10.0 mi SW 5.8 mph - N/A   Mostly Cloudy
6:55 PM 44.6 °F 42.2 °F 28.4 °F 53% 29.85 in 10.0 mi WNW 4.6 mph - N/A   Overcast
7:55 PM 42.8 °F 38.0 °F 32.0 °F 66% 29.87 in 10.0 mi West 8.1 mph - N/A   Overcast
8:58 PM 40.8 °F 36.9 °F 33.4 °F 75% 29.90 in 10.0 mi West 5.8 mph - N/A   Mostly Cloudy
9:58 PM 40.5 °F 35.8 °F 28.9 °F 64% 29.91 in 10.0 mi North 6.9 mph - N/A   Mostly Cloudy
10:58 PM 38.5 °F 32.7 °F 20.8 °F 49% 29.94 in 10.0 mi North 8.1 mph - N/A   Overcast
11:58 PM 36.5 °F 31.8 °F 19.9 °F 51% 29.94 in 10.0 mi North 5.8 mph - N/A   Overcast